Regional Weather Roundup
Issued by NWS Portland, ME

Home | Current Version | Previous Version | Text Only | Print | Product List | Glossary On
Versions: 1 2 3 4 5 6 7 8 9 10 11 12 13 14 15 16 17 18 19 20 21 22 23 24 25 26 27 28 29 30 31 32 33 34 35 36 37 38 39 40 41 42 43 44 45 46 47 48 49 50
000
ASUS41 KGYX 211810
RWRGYX
WEATHER ROUNDUP FOR MAINE AND NEW HAMPSHIRE
NATIONAL WEATHER SERVICE GRAY ME
200 PM EDT SAT OCT 21 2017

MEZ002-005-006-010-012-015-018-020-021-024-026-027-029-211900-
MAINE

CITY           SKY/WX    TMP DP  RH WIND       PRES   REMARKS
PORTLAND       NOT AVBL
SANFORD        SUNNY     76  44  32 W12       30.22S
BAR HARBOR     CLOUDY    65  41  41 SW7       30.24S
WISCASSET      SUNNY     68  45  43 S6        30.24S
6HR MIN TEMP:  43; 6HR MAX TEMP:  68;

ROCKLAND       CLOUDY    59  48  67 S7        30.25R
FRYEBURG       NOT AVBL
LEWISTONAUBURN SUNNY     72  41  32 S5        30.22S
AUGUSTA        SUNNY     71  38  29 W9        30.22S
6HR MIN TEMP:  50; 6HR MAX TEMP:  71;

WATERVILLE     SUNNY     69  43  38 CALM      30.20S
BANGOR         MOSUNNY   68  40  35 VRB6      30.23F
6HR MIN TEMP:  43; 6HR MAX TEMP:  68;

GREENVILLE       N/A     61  42  49 N5        30.21S
6HR MIN TEMP:  44; 6HR MAX TEMP:  61;

MILLINOCKET    SUNNY     61  33  35 CALM      30.23F
6HR MIN TEMP:  44; 6HR MAX TEMP:  63;

HOULTON        SUNNY     57  28  33 VRB7      30.22S
6HR MIN TEMP:  35; 6HR MAX TEMP:  58;

PRESQUE ISLE   NOT AVBL
FRENCHVILLE    SUNNY     50  25  37 N10       30.22S
6HR MIN TEMP:  35; 6HR MAX TEMP:  50;

CARIBOU        NOT AVBL
$$

NHZ002-005-008-009-011-012-014-211900-
NEW HAMPSHIRE

CITY           SKY/WX    TMP DP  RH WIND       PRES   REMARKS
PORTSMOUTH     MOSUNNY   75  41  28 SW8       30.21F
ROCHESTER      SUNNY     76  40  27 VRB3      30.22F
6HR MIN TEMP:  53; 6HR MAX TEMP:  76;

NASHUA         SUNNY     75  39  27 VRB3      30.24F
MANCHESTER     SUNNY     75  42  30 VRB6      30.22F
6HR MIN TEMP:  43; 6HR MAX TEMP:  75;

CONCORD        SUNNY     76  41  28 SW7       30.23F
6HR MIN TEMP:  40; 6HR MAX TEMP:  77;

LACONIA        SUNNY     72  41  32 SW10      30.24S
PLYMOUTH       FAIR      75  39  26 W6        30.23R
BERLIN         SUNNY     71  40  32 VRB3      30.23S
6HR MIN TEMP:  30; 6HR MAX TEMP:  71;

WHITEFIELD     SUNNY     71  40  32 VRB6      30.25R
6HR MIN TEMP:  31; 6HR MAX TEMP:  71;

JAFFREY        SUNNY     73  39  29 NW7       30.28F
6HR MIN TEMP:  43; 6HR MAX TEMP:  73;

KEENE          SUNNY     76  40  27 SW7       30.27F
LEBANON        SUNNY     75  41  29 SW7       30.24S
6HR MIN TEMP:  36; 6HR MAX TEMP:  75;

MT WASHINGTON  MOSUNNY   45  41  87 NW46G59     N/A
6HR MIN TEMP:  38; 6HR MAX TEMP:  46;

$$

VTZ005-007-008-211900-
VERMONT

CITY           SKY/WX    TMP DP  RH WIND       PRES   REMARKS
ST JOHNSBURY     N/A     68  41  37 MISG      30.22S
BURLINGTON     MOSUNNY   71  42  35 S9        30.23F
$$

MAZ007-012-024-CTZ003-RIZ002-NYZ038-NYZ072-211900-
SOUTHERN NEW ENGLAND AND NY

CITY           SKY/WX    TMP DP  RH WIND       PRES   REMARKS
BOSTON         MOSUNNY   75  42  30 SW5       30.24F
WORCESTER      SUNNY     71  35  26 W14       30.29F
NANTUCKET      SUNNY     65  52  62 SW13      30.30F
PROVIDENCE     MOSUNNY   72  47  40 SE12      30.27F
HARTFORD       MOSUNNY   78  41  26 S8        30.27F
ALBANY         MOSUNNY   73  43  33 CALM      30.29F
NEW YORK CITY  MOSUNNY   79  44  28 W6        30.30F
$$

ANZ081-ANZ082-ANZ150-NHZ014-MEZ023>029-211900-
COASTAL MARINE OBSERVATIONS

STATION/POSITION TIME  TEMP    WIND        PRES    WAVE
                       AIR SEA DIR/SP/G            HT/PER
                 (UTC) (F)     (DEG/KT/KT) (MB)    (FT/S)
MOUNT DESERT ROC 1800   59     170/  6/  6 1024.8R
MATINICUS ROCK   1700   59     130/  6/  6 1023.9F
ISLE OF SHOALS   1700   64     200/ 13/ 13 1023.7F
JEFFREYS LEDGE   1736      59                N/A     2/ 9
GEORGES BANK BUO 1650   58 59              1025.0    3/ 5
$$

.............KEY..............
   WCI - WIND CHILL
   TC  - TEMPERATURE IN CELSIUS
   VSB - VISIBILITY IN MILES
   HX  - HEAT INDEX
   FAIR- INDICATES FEW OR NO CLOUDS BELOW 12,000 FT, WITH NO
         SIGNIFICANT WEATHER AND/OR OBSTRUCTIONS TO VISIBILITY.





USA.gov is the U.S. government's official web portal to all federal, state and local government web resources and services.